Time,TemperatureF,DewpointF,PressureIn,WindDirection,WindDirectionDegrees,WindSpeedMPH,WindSpeedGustMPH,Humidity,HourlyPrecipIn,Conditions,Clouds,dailyrainin,SoftwareType,DateUTC
2013-05-16 00:01:00,57.4,56.8,29.76,ENE,67,0.0,-999.0,98,-99.99,,,0.00,Acu-Link.com,2013-05-16 05:01:00,
2013-05-16 00:16:00,57.0,56.4,29.78,West,270,0.0,-999.0,98,-99.99,,,0.00,Acu-Link.com,2013-05-16 05:16:00,
2013-05-16 00:32:00,56.5,55.9,29.77,West,270,0.0,-999.0,98,-99.99,,,0.00,Acu-Link.com,2013-05-16 05:32:00,
2013-05-16 00:47:00,56.7,56.1,29.78,ESE,112,0.0,-999.0,98,-99.99,,,0.00,Acu-Link.com,2013-05-16 05:47:00,
2013-05-16 01:02:00,56.7,56.1,29.78,West,270,0.0,-999.0,98,-99.99,,,0.00,Acu-Link.com,2013-05-16 06:02:00,
2013-05-16 01:17:00,56.5,55.9,29.78,South,180,0.0,-999.0,98,-99.99,,,0.00,Acu-Link.com,2013-05-16 06:17:00,
2013-05-16 01:32:00,55.9,55.3,29.79,WNW,292,0.0,-999.0,98,-99.99,,,0.00,Acu-Link.com,2013-05-16 06:32:00,
2013-05-16 01:47:00,55.6,55.0,29.78,WSW,247,0.0,-999.0,98,-99.99,,,0.00,Acu-Link.com,2013-05-16 06:47:00,
2013-05-16 02:02:00,55.0,54.4,29.78,South,180,0.0,-999.0,98,-99.99,,,0.00,Acu-Link.com,2013-05-16 07:02:00,
2013-05-16 02:17:00,54.9,54.3,29.79,West,270,0.0,-999.0,98,-99.99,,,0.00,Acu-Link.com,2013-05-16 07:17:00,
2013-05-16 02:32:00,54.7,54.1,29.80,SSE,157,0.0,-999.0,98,-99.99,,,0.00,Acu-Link.com,2013-05-16 07:32:00,
2013-05-16 02:47:00,55.8,55.2,29.81,West,270,0.0,-999.0,98,-99.99,,,0.00,Acu-Link.com,2013-05-16 07:47:00,
2013-05-16 03:03:00,55.9,55.3,29.82,South,180,0.0,-999.0,98,-99.99,,,0.00,Acu-Link.com,2013-05-16 08:03:00,
2013-05-16 03:18:00,55.9,55.3,29.83,West,270,0.0,-999.0,98,-99.99,,,0.00,Acu-Link.com,2013-05-16 08:18:00,
2013-05-16 03:33:00,56.1,55.5,29.83,NNE,22,0.0,-999.0,98,-99.99,,,0.00,Acu-Link.com,2013-05-16 08:33:00,
2013-05-16 03:48:00,55.8,55.2,29.81,West,270,0.0,-999.0,98,-99.99,,,0.00,Acu-Link.com,2013-05-16 08:48:00,
2013-05-16 04:03:00,55.6,55.0,29.81,West,270,0.0,-999.0,98,-99.99,,,0.00,Acu-Link.com,2013-05-16 09:03:00,
2013-05-16 04:18:00,55.4,54.8,29.81,NE,45,0.0,-999.0,98,-99.99,,,0.00,Acu-Link.com,2013-05-16 09:18:00,
2013-05-16 04:34:00,55.0,54.4,29.80,NE,45,0.0,-999.0,98,-99.99,,,0.00,Acu-Link.com,2013-05-16 09:34:00,
2013-05-16 04:49:00,54.9,54.3,29.81,NE,45,0.0,-999.0,98,-99.99,,,0.00,Acu-Link.com,2013-05-16 09:49:00,
2013-05-16 05:04:00,54.9,54.3,29.82,NE,45,0.0,-999.0,98,-99.99,,,0.00,Acu-Link.com,2013-05-16 10:04:00,
2013-05-16 05:19:00,54.9,54.3,29.84,West,270,0.0,-999.0,98,-99.99,,,0.00,Acu-Link.com,2013-05-16 10:19:00,
2013-05-16 05:34:00,55.0,54.4,29.83,West,270,0.0,-999.0,98,-99.99,,,0.00,Acu-Link.com,2013-05-16 10:34:00,
2013-05-16 05:49:00,55.8,55.2,29.84,West,270,0.0,-999.0,98,-99.99,,,0.00,Acu-Link.com,2013-05-16 10:49:00,
2013-05-16 06:04:00,55.8,55.2,29.84,West,270,0.0,-999.0,98,-99.99,,,0.00,Acu-Link.com,2013-05-16 11:04:00,
2013-05-16 06:19:00,55.8,55.2,29.84,West,270,0.0,-999.0,98,-99.99,,,0.00,Acu-Link.com,2013-05-16 11:19:00,
2013-05-16 06:34:00,55.9,55.3,29.85,West,270,0.0,-999.0,98,-99.99,,,0.00,Acu-Link.com,2013-05-16 11:34:00,
2013-05-16 06:50:00,56.7,56.1,29.85,West,270,0.0,-999.0,98,-99.99,,,0.00,Acu-Link.com,2013-05-16 11:50:00,
2013-05-16 07:05:00,57.6,57.0,29.86,SE,135,0.0,-999.0,98,-99.99,,,0.00,Acu-Link.com,2013-05-16 12:05:00,
2013-05-16 07:20:00,60.1,59.5,29.86,WNW,292,0.0,-999.0,98,-99.99,,,0.00,Acu-Link.com,2013-05-16 12:20:00,
2013-05-16 07:35:00,62.6,62.0,29.86,NE,45,0.0,-999.0,98,-99.99,,,0.00,Acu-Link.com,2013-05-16 12:35:00,
2013-05-16 07:50:00,64.0,63.4,29.86,WNW,292,0.0,-999.0,98,-99.99,,,0.00,Acu-Link.com,2013-05-16 12:50:00,
2013-05-16 08:05:00,66.0,65.4,29.86,WSW,247,0.0,-999.0,98,-99.99,,,0.00,Acu-Link.com,2013-05-16 13:05:00,
2013-05-16 08:20:00,67.8,67.2,29.88,NNE,22,0.0,-999.0,98,-99.99,,,0.00,Acu-Link.com,2013-05-16 13:20:00,
2013-05-16 08:35:00,69.1,68.5,29.88,SSW,202,0.0,-999.0,98,-99.99,,,0.00,Acu-Link.com,2013-05-16 13:35:00,
2013-05-16 08:50:00,70.5,69.9,29.88,West,270,0.0,-999.0,98,-99.99,,,0.00,Acu-Link.com,2013-05-16 13:50:00,
2013-05-16 09:06:00,72.3,71.7,29.88,SE,135,0.0,-999.0,98,-99.99,,,0.00,Acu-Link.com,2013-05-16 14:06:00,
2013-05-16 09:21:00,73.9,69.8,29.87,NE,45,0.0,-999.0,87,-99.99,,,0.00,Acu-Link.com,2013-05-16 14:21:00,
2013-05-16 09:36:00,74.1,70.0,29.87,NW,315,1.7,-999.0,87,-99.99,,,0.00,Acu-Link.com,2013-05-16 14:36:00,
2013-05-16 09:51:00,76.1,69.8,29.87,ESE,112,0.0,-999.0,81,-99.99,,,0.00,Acu-Link.com,2013-05-16 14:51:00,
2013-05-16 10:06:00,77.2,70.2,29.87,ESE,112,1.1,-999.0,79,-99.99,,,0.00,Acu-Link.com,2013-05-16 15:06:00,
2013-05-16 10:21:00,77.5,69.3,29.89,SW,225,0.0,-999.0,76,-99.99,,,0.00,Acu-Link.com,2013-05-16 15:21:00,
2013-05-16 10:36:00,77.7,67.9,29.88,ESE,112,2.2,-999.0,72,-99.99,,,0.00,Acu-Link.com,2013-05-16 15:36:00,
2013-05-16 10:51:00,78.3,66.4,29.87,East,90,1.7,-999.0,67,-99.99,,,0.00,Acu-Link.com,2013-05-16 15:51:00,
2013-05-16 11:06:00,81.0,68.1,29.86,West,270,1.1,-999.0,65,-99.99,,,0.00,Acu-Link.com,2013-05-16 16:06:00,
2013-05-16 11:21:00,79.5,66.2,29.85,WSW,247,1.1,-999.0,64,-99.99,,,0.00,Acu-Link.com,2013-05-16 16:21:00,
2013-05-16 11:37:00,79.2,65.0,29.85,NNW,337,1.7,-999.0,62,-99.99,,,0.00,Acu-Link.com,2013-05-16 16:37:00,
2013-05-16 11:52:00,81.5,65.8,29.84,SSE,157,1.1,-999.0,59,-99.99,,,0.00,Acu-Link.com,2013-05-16 16:52:00,
2013-05-16 12:07:00,81.3,65.6,29.84,NNE,22,2.2,-999.0,59,-99.99,,,0.00,Acu-Link.com,2013-05-16 17:07:00,
2013-05-16 12:22:00,80.1,64.5,29.85,WNW,292,0.0,-999.0,59,-99.99,,,0.00,Acu-Link.com,2013-05-16 17:22:00,
2013-05-16 12:37:00,80.1,61.9,29.83,West,270,1.1,-999.0,54,-99.99,,,0.00,Acu-Link.com,2013-05-16 17:37:00,
2013-05-16 12:52:00,85.3,66.7,29.83,ESE,112,0.0,-999.0,54,-99.99,,,0.00,Acu-Link.com,2013-05-16 17:52:00,
2013-05-16 13:07:00,83.5,62.9,29.82,SSE,157,4.7,-999.0,50,-99.99,,,0.00,Acu-Link.com,2013-05-16 18:07:00,
2013-05-16 13:22:00,84.7,62.8,29.83,ENE,67,2.2,-999.0,48,-99.99,,,0.00,Acu-Link.com,2013-05-16 18:22:00,
2013-05-16 13:37:00,85.3,62.8,29.85,SSE,157,1.7,-999.0,47,-99.99,,,0.00,Acu-Link.com,2013-05-16 18:37:00,
2013-05-16 13:53:00,86.2,63.6,29.82,ESE,112,4.7,-999.0,47,-99.99,,,0.00,Acu-Link.com,2013-05-16 18:53:00,
2013-05-16 14:08:00,85.1,64.3,29.82,ESE,112,4.7,-999.0,50,-99.99,,,0.00,Acu-Link.com,2013-05-16 19:08:00,
2013-05-16 14:23:00,84.4,63.1,29.82,NW,315,0.0,-999.0,49,-99.99,,,0.00,Acu-Link.com,2013-05-16 19:23:00,
2013-05-16 14:38:00,85.5,64.1,29.82,West,270,3.2,-999.0,49,-99.99,,,0.00,Acu-Link.com,2013-05-16 19:38:00,
2013-05-16 14:53:00,82.9,62.3,29.81,East,90,0.0,-999.0,50,-99.99,,,0.00,Acu-Link.com,2013-05-16 19:53:00,
2013-05-16 15:08:00,82.8,60.5,29.81,South,180,4.7,-999.0,47,-99.99,,,0.00,Acu-Link.com,2013-05-16 20:08:00,
2013-05-16 15:24:00,83.1,60.8,29.80,SSW,202,2.7,-999.0,47,-99.99,,,0.00,Acu-Link.com,2013-05-16 20:24:00,
2013-05-16 15:39:00,83.5,59.9,29.83,ESE,112,3.7,-999.0,45,-99.99,,,0.00,Acu-Link.com,2013-05-16 20:39:00,
2013-05-16 15:54:00,83.3,62.1,29.80,SSE,157,4.2,-999.0,49,-99.99,,,0.00,Acu-Link.com,2013-05-16 20:54:00,
2013-05-16 16:09:00,82.9,61.2,29.81,ESE,112,5.3,-999.0,48,-99.99,,,0.00,Acu-Link.com,2013-05-16 21:09:00,
2013-05-16 16:24:00,82.6,61.5,29.81,South,180,4.2,-999.0,49,-99.99,,,0.00,Acu-Link.com,2013-05-16 21:24:00,
2013-05-16 16:39:00,79.2,63.1,29.82,SSE,157,3.7,-999.0,58,-99.99,,,0.00,Acu-Link.com,2013-05-16 21:39:00,
2013-05-16 16:54:00,77.9,62.4,29.82,SSE,157,4.7,-999.0,59,-99.99,,,0.00,Acu-Link.com,2013-05-16 21:54:00,
2013-05-16 17:09:00,76.5,61.6,29.83,South,180,1.1,-999.0,60,-99.99,,,0.00,Acu-Link.com,2013-05-16 22:09:00,
2013-05-16 17:24:00,76.3,62.8,29.83,ENE,67,2.2,-999.0,63,-99.99,,,0.00,Acu-Link.com,2013-05-16 22:24:00,
2013-05-16 17:40:00,75.2,62.6,29.83,East,90,2.7,-999.0,65,-99.99,,,0.00,Acu-Link.com,2013-05-16 22:40:00,
2013-05-16 17:55:00,74.5,61.9,29.84,NNE,22,3.7,-999.0,65,-99.99,,,0.00,Acu-Link.com,2013-05-16 22:55:00,
2013-05-16 18:10:00,73.2,62.8,29.85,NNE,22,2.7,-999.0,70,-99.99,,,0.00,Acu-Link.com,2013-05-16 23:10:00,
2013-05-16 18:25:00,71.4,61.5,29.86,ENE,67,2.2,-999.0,71,-99.99,,,0.00,Acu-Link.com,2013-05-16 23:25:00,
2013-05-16 18:40:00,69.3,60.3,29.85,SSE,157,1.7,-999.0,73,-99.99,,,0.00,Acu-Link.com,2013-05-16 23:40:00,
2013-05-16 18:55:00,66.6,58.8,29.86,East,90,0.0,-999.0,76,-99.99,,,0.00,Acu-Link.com,2013-05-16 23:55:00,
2013-05-16 19:10:00,66.0,58.9,29.87,SSW,202,0.0,-999.0,78,-99.99,,,0.00,Acu-Link.com,2013-05-17 00:10:00,
2013-05-16 19:25:00,64.9,58.2,29.87,ESE,112,0.0,-999.0,79,-99.99,,,0.00,Acu-Link.com,2013-05-17 00:25:00,
2013-05-16 19:40:00,62.8,56.2,29.85,East,90,4.7,-999.0,79,-99.99,,,0.00,Acu-Link.com,2013-05-17 00:40:00,
2013-05-16 19:56:00,61.2,56.3,29.86,South,180,2.7,-999.0,84,-99.99,,,0.00,Acu-Link.com,2013-05-17 00:56:00,
2013-05-16 20:11:00,60.3,54.1,29.87,East,90,1.7,-999.0,80,-99.99,,,0.00,Acu-Link.com,2013-05-17 01:11:00,
2013-05-16 20:26:00,59.4,53.2,29.88,SE,135,2.2,-999.0,80,-99.99,,,0.00,Acu-Link.com,2013-05-17 01:26:00,
2013-05-16 20:41:00,58.3,52.8,29.88,SSW,202,0.0,-999.0,82,-99.99,,,0.00,Acu-Link.com,2013-05-17 01:41:00,
2013-05-16 20:57:00,57.7,52.9,29.90,ENE,67,1.1,-999.0,84,-99.99,,,0.00,Acu-Link.com,2013-05-17 01:57:00,
2013-05-16 21:12:00,57.0,53.8,29.91,ESE,112,1.7,-999.0,89,-99.99,,,0.00,Acu-Link.com,2013-05-17 02:12:00,
2013-05-16 21:27:00,56.5,55.7,29.92,North,0,0.0,-999.0,97,-99.99,,,0.00,Acu-Link.com,2013-05-17 02:27:00,
2013-05-16 21:42:00,55.9,55.3,29.92,ESE,112,0.0,-999.0,98,-99.99,,,0.00,Acu-Link.com,2013-05-17 02:42:00,
2013-05-16 21:57:00,55.6,55.0,29.92,ESE,112,0.0,-999.0,98,-99.99,,,0.00,Acu-Link.com,2013-05-17 02:57:00,
2013-05-16 22:12:00,55.0,54.4,29.91,ENE,67,0.0,-999.0,98,-99.99,,,0.00,Acu-Link.com,2013-05-17 03:12:00,
2013-05-16 22:27:00,54.9,54.3,29.91,ESE,112,0.0,-999.0,98,-99.99,,,0.00,Acu-Link.com,2013-05-17 03:27:00,
2013-05-16 22:42:00,54.7,54.1,29.92,South,180,0.0,-999.0,98,-99.99,,,0.00,Acu-Link.com,2013-05-17 03:42:00,
2013-05-16 22:57:00,54.9,54.3,29.92,SW,225,0.0,-999.0,98,-99.99,,,0.00,Acu-Link.com,2013-05-17 03:57:00,
2013-05-16 23:13:00,54.9,54.3,29.92,NE,45,0.0,-999.0,98,-99.99,,,0.00,Acu-Link.com,2013-05-17 04:13:00,
2013-05-16 23:28:00,54.7,54.1,29.93,SE,135,0.0,-999.0,98,-99.99,,,0.00,Acu-Link.com,2013-05-17 04:28:00,
2013-05-16 23:43:00,54.7,54.1,29.92,East,90,0.0,-999.0,98,-99.99,,,0.00,Acu-Link.com,2013-05-17 04:43:00,
2013-05-16 23:58:00,54.9,54.3,29.92,ESE,112,0.0,-999.0,98,-99.99,,,0.00,Acu-Link.com,2013-05-17 04:58:00,